This is the latest recevied weather packets stored in our database for station/object K1ZK-13. If no packets are shown the sender has not sent any weather packets the latest 10 day(s).
| Time | Temp. | Humidity | Pressure | Rain* | Wind** | Luminosity | Snow |
|---|---|---|---|---|---|---|---|
| 1777828848 | 8.89° C | 55% | 1010 hPa | 0 mm | - | 264 W/m² | - |
| 1777828544 | 8.89° C | 54% | 1009.9 hPa | 0 mm | - | 168 W/m² | - |
| 1777828242 | 8.89° C | 55% | 1010 hPa | 0 mm | - | 172 W/m² | - |
| 1777827938 | 8.89° C | 54% | 1010 hPa | 0 mm | - | 206 W/m² | - |
| 1777827636 | 8.89° C | 52% | 1010.1 hPa | 0 mm | - | 287 W/m² | - |
| 1777827333 | 8.33° C | 56% | 1010.2 hPa | 0 mm | - | 363 W/m² | - |
| 1777827029 | 8.33° C | 55% | 1010.1 hPa | 0 mm | - | 218 W/m² | - |
| 1777826726 | 8.33° C | 56% | 1010.2 hPa | 0 mm | - | 150 W/m² | - |
| 1777826423 | 8.33° C | 55% | 1010.3 hPa | 0 mm | - | 162 W/m² | - |
| 1777826120 | 8.33° C | 57% | 1010.3 hPa | 0 mm | - | 206 W/m² | - |
| 1777825817 | 8.33° C | 56% | 1010.3 hPa | 0 mm | - | 253 W/m² | - |
| 1777825514 | 8.33° C | 57% | 1010.1 hPa | 0 mm | - | 224 W/m² | - |
| 1777825212 | 8.33° C | 55% | 1010.3 hPa | 0 mm | - | 194 W/m² | - |
| 1777824909 | 8.33° C | 59% | 1010.4 hPa | 0 mm | - | 180 W/m² | - |
| 1777824604 | 8.33° C | 58% | 1010.6 hPa | 0 mm | - | 193 W/m² | - |
| 1777824302 | 8.33° C | 56% | 1010.4 hPa | 0 mm | - | 237 W/m² | - |
| 1777823997 | 8.33° C | 57% | 1010.6 hPa | 0 mm | - | 247 W/m² | - |
| 1777823694 | 8.33° C | 60% | 1010.5 hPa | 0 mm | - | 241 W/m² | - |
| 1777823391 | 7.78° C | 59% | 1010.7 hPa | 0 mm | - | 238 W/m² | - |
| 1777823089 | 7.78° C | 56% | 1010.8 hPa | 0 mm | - | 240 W/m² | - |
| 1777822786 | 7.78° C | 55% | 1010.7 hPa | 0 mm | - | 239 W/m² | - |
| 1777822484 | 7.78° C | 55% | 1010.8 hPa | 0 mm | - | 243 W/m² | - |
| 1777822181 | 7.78° C | 54% | 1010.7 hPa | 0 mm | - | 235 W/m² | - |
| 1777821879 | 7.78° C | 54% | 1010.7 hPa | 0 mm | - | 196 W/m² | - |
| 1777821576 | 8.33° C | 54% | 1010.8 hPa | 0 mm | - | 189 W/m² | - |
* Rain latest hour (hover to see other rain measurements)
** Current wind speed in m/s (hover to see current wind gust speed)